Location: Makanda
(37.6176°N, 89.2090°W)
Time: 08:59:29
(UTC+00:00)

Cosmos 2082 - Pass Details

Date: 23 September 2019
Orbit: 834 x 855 km, 71.0° (Epoch: 19 October)

Event Time Altitude Azimuth Distance (km) Brightness Sun altitude
Rises 11:12:12 0° 339° (NNW) 3,415 6.7 -7.4°
Reaches altitude 10° 11:14:40 10° 342° (NNW) 2,473 6.0 -6.9°
Maximum altitude 11:20:21 74° 67° (ENE) 877 4.0 -5.8°
Drops below altitude 10° 11:25:57 10° 152° (SSE) 2,444 6.5 -4.7°
Sets 11:28:23 0° 155° (SSE) 3,372 7.1 -4.2°
